TimeCST,TemperatureF,Dew PointF,Humidity,Sea Level PressureIn,VisibilityMPH,Wind Direction,Wind SpeedMPH,Gust SpeedMPH,PrecipitationIn,Events,Conditions,WindDirDegrees,DateUTC
12:15 AM,47.7,42.8,83,30.34,7.0,NW,11.5,-,N/A,,Overcast,320,2013-01-05 06:15:00
12:55 AM,47.7,42.8,83,30.33,7.0,NNW,12.7,-,N/A,,Overcast,330,2013-01-05 06:55:00
1:15 AM,47.8,42.4,82,30.33,7.0,NW,11.5,-,N/A,,Overcast,320,2013-01-05 07:15:00
1:35 AM,47.7,42.6,83,30.32,7.0,NW,11.5,-,N/A,,Overcast,320,2013-01-05 07:35:00
1:55 AM,47.7,42.4,82,30.32,7.0,NW,10.4,-,N/A,,Overcast,320,2013-01-05 07:55:00
2:15 AM,47.7,42.1,81,30.32,7.0,NNW,11.5,-,N/A,,Overcast,330,2013-01-05 08:15:00
2:35 AM,47.8,41.7,79,30.32,7.0,NNW,12.7,17.3,N/A,,Overcast,330,2013-01-05 08:35:00
2:55 AM,47.8,41.0,77,30.32,7.0,NNW,11.5,-,N/A,,Overcast,330,2013-01-05 08:55:00
3:15 AM,47.8,40.6,76,30.32,7.0,NNW,13.8,-,N/A,,Overcast,330,2013-01-05 09:15:00
3:35 AM,47.5,41.0,78,30.32,7.0,NW,11.5,-,N/A,,Overcast,320,2013-01-05 09:35:00
3:55 AM,47.5,41.0,78,30.32,5.0,NNW,13.8,-,N/A,,Haze,330,2013-01-05 09:55:00
4:15 AM,47.5,40.5,77,30.32,7.0,NNW,12.7,21.9,N/A,,Overcast,340,2013-01-05 10:15:00
4:35 AM,47.3,40.6,78,30.32,7.0,NNW,12.7,-,N/A,,Overcast,330,2013-01-05 10:35:00
4:55 AM,47.3,41.0,79,30.32,7.0,NNW,12.7,18.4,N/A,,Overcast,330,2013-01-05 10:55:00
5:15 AM,46.9,41.0,80,30.32,7.0,NNW,12.7,-,N/A,,Overcast,330,2013-01-05 11:15:00
5:35 AM,46.8,41.0,80,30.32,5.0,NNW,15.0,19.6,N/A,,Haze,330,2013-01-05 11:35:00
6:15 AM,45.7,42.1,87,30.33,3.0,NNW,13.8,-,N/A,,Overcast,330,2013-01-05 12:15:00
6:35 AM,45.5,42.3,88,30.33,2.5,NNW,13.8,17.3,N/A,,Overcast,330,2013-01-05 12:35:00
6:55 AM,45.5,42.8,90,30.33,2.5,NNW,11.5,-,N/A,,Overcast,330,2013-01-05 12:55:00
7:15 AM,45.5,42.8,90,30.34,2.5,NNW,10.4,-,N/A,Rain,Light Rain,330,2013-01-05 13:15:00
7:35 AM,45.5,42.8,90,30.35,2.0,NNW,12.7,17.3,N/A,,Light Drizzle,340,2013-01-05 13:35:00
7:55 AM,45.5,43.0,91,30.36,2.5,North,10.4,-,N/A,,Overcast,350,2013-01-05 13:55:00
8:15 AM,45.9,43.2,90,30.36,1.5,NW,8.1,-,N/A,,Overcast,320,2013-01-05 14:15:00
8:35 AM,45.9,43.3,91,30.36,1.2,NW,12.7,-,N/A,,Drizzle,320,2013-01-05 14:35:00
9:15 AM,46.4,43.7,90,30.37,1.5,NNW,10.4,-,N/A,,Overcast,330,2013-01-05 15:15:00
9:35 AM,46.2,43.7,91,30.38,1.8,NNW,10.4,-,N/A,,Overcast,330,2013-01-05 15:35:00
9:55 AM,46.6,44.1,91,30.38,2.0,NNW,10.4,-,N/A,,Overcast,330,2013-01-05 15:55:00
10:15 AM,46.9,44.4,91,30.38,2.5,NNW,9.2,-,N/A,,Overcast,340,2013-01-05 16:15:00
10:55 AM,47.8,45.0,90,30.37,4.0,NNW,12.7,-,N/A,,Drizzle,340,2013-01-05 16:55:00
11:15 AM,48.2,45.0,89,30.36,3.0,NNW,11.5,-,N/A,,Overcast,340,2013-01-05 17:15:00
11:35 AM,48.4,45.3,89,30.36,5.0,NNW,12.7,-,N/A,,Overcast,340,2013-01-05 17:35:00
11:55 AM,48.6,45.5,89,30.34,4.0,NNW,10.4,-,N/A,,Overcast,340,2013-01-05 17:55:00
12:15 PM,49.1,45.7,88,30.33,5.0,NNW,11.5,-,N/A,,Overcast,340,2013-01-05 18:15:00
12:35 PM,49.6,45.7,86,30.32,3.0,NNW,11.5,-,N/A,,Overcast,330,2013-01-05 18:35:00
12:55 PM,50.0,45.7,85,30.30,5.0,NNW,9.2,-,N/A,,Overcast,340,2013-01-05 18:55:00
1:15 PM,50.2,45.7,85,30.29,5.0,NNW,13.8,-,N/A,,Overcast,330,2013-01-05 19:15:00
1:35 PM,50.9,45.7,82,30.28,5.0,NNW,11.5,-,N/A,,Haze,340,2013-01-05 19:35:00
1:55 PM,51.3,45.5,81,30.27,7.0,NNW,9.2,-,N/A,,Overcast,340,2013-01-05 19:55:00
2:15 PM,51.8,45.5,79,30.27,7.0,NNW,9.2,-,N/A,,Overcast,330,2013-01-05 20:15:00
2:35 PM,52.3,45.7,78,30.26,5.0,NNW,9.2,-,N/A,,Haze,330,2013-01-05 20:35:00
2:55 PM,53.1,46.0,77,30.25,7.0,North,10.4,-,N/A,,Overcast,350,2013-01-05 20:55:00
3:15 PM,53.1,45.5,75,30.25,7.0,NNW,9.2,-,N/A,,Overcast,340,2013-01-05 21:15:00
3:35 PM,54.0,45.7,74,30.25,7.0,North,12.7,-,N/A,,Overcast,360,2013-01-05 21:35:00
3:55 PM,54.3,46.0,74,30.25,5.0,North,8.1,-,N/A,,Haze,360,2013-01-05 21:55:00
4:15 PM,54.5,45.7,72,30.25,7.0,NNW,8.1,-,N/A,,Overcast,340,2013-01-05 22:15:00
4:35 PM,54.5,46.0,73,30.25,7.0,North,9.2,-,N/A,,Overcast,10,2013-01-05 22:35:00
4:55 PM,54.3,46.4,75,30.25,7.0,North,9.2,-,N/A,,Overcast,360,2013-01-05 22:55:00
5:15 PM,54.1,45.9,74,30.25,5.0,North,9.2,-,N/A,,Haze,10,2013-01-05 23:15:00
5:35 PM,54.0,46.0,75,30.25,5.0,North,5.8,-,N/A,,Haze,10,2013-01-05 23:35:00
5:55 PM,53.8,46.4,76,30.25,5.0,North,8.1,-,N/A,,Haze,10,2013-01-05 23:55:00
6:15 PM,53.8,46.4,76,30.25,7.0,North,5.8,-,N/A,,Overcast,10,2013-01-06 00:15:00
6:35 PM,53.6,46.4,77,30.25,7.0,North,6.9,-,N/A,,Overcast,10,2013-01-06 00:35:00
6:55 PM,53.6,46.0,76,30.26,7.0,North,6.9,-,N/A,,Overcast,350,2013-01-06 00:55:00
7:15 PM,53.6,46.0,76,30.27,7.0,North,5.8,-,N/A,,Overcast,350,2013-01-06 01:15:00
7:55 PM,53.6,45.9,75,30.28,7.0,North,5.8,-,N/A,,Overcast,350,2013-01-06 01:55:00
8:15 PM,53.4,45.7,75,30.28,7.0,NNW,6.9,-,N/A,,Overcast,340,2013-01-06 02:15:00
8:55 PM,53.2,45.5,75,30.30,7.0,NNW,5.8,-,N/A,,Overcast,340,2013-01-06 02:55:00
9:15 PM,53.2,45.5,75,30.30,7.0,NNW,8.1,-,N/A,,Overcast,340,2013-01-06 03:15:00
9:35 PM,53.2,45.5,75,30.30,7.0,NNW,5.8,-,N/A,,Overcast,340,2013-01-06 03:35:00
9:55 PM,53.1,45.5,75,30.30,7.0,NNW,4.6,-,N/A,,Overcast,330,2013-01-06 03:55:00
10:15 PM,53.1,45.5,75,30.30,7.0,North,5.8,-,N/A,,Overcast,350,2013-01-06 04:15:00
10:35 PM,53.1,45.1,74,30.30,7.0,NNW,4.6,-,N/A,,Overcast,340,2013-01-06 04:35:00
11:15 PM,52.9,45.7,77,30.30,7.0,NNW,3.5,-,N/A,,Overcast,330,2013-01-06 05:15:00
11:35 PM,52.9,45.7,77,30.29,7.0,NW,3.5,-,N/A,,Overcast,310,2013-01-06 05:35:00
11:55 PM,52.9,45.5,76,30.29,7.0,NW,4.6,-,N/A,,Overcast,310,2013-01-06 05:55:00